Racine, WI

1:03 PM CST on December 16, 2017 (GMT -0600)
Batten

Weather History for KRAC - December, 2012

Change the Weather History Date:

Monday, December 10, 2012

  Actual Average Record
Temperature  
Mean Temperature 33 °F -  
Max Temperature 36 °F 35 °F 57 °F (2015)
Min Temperature 28 °F 22 °F -6 °F (1958)
Degree Days  
Heating Degree Days 32    
Moisture  
Dew Point 26 °F    
Average Humidity 78    
Maximum Humidity 96    
Minimum Humidity 60    
Precipitation  
Precipitation 0.00 in - - ()
Sea Level Pressure  
Sea Level Pressure 29.82 in    
Wind  
Wind Speed 8 mph (WNW)    
Max Wind Speed 13 mph    
Max Gust Speed 21 mph    
Visibility 9 miles    
Events      
Averages and records for this station are not official NWS values.
T = Trace of Precipitation, MM = Missing Value Source: NWS Daily Summary

Daily Weather History Graph

Daily Weather History Graph

Search for Another Location

Airport or City:

Trip Planner

Search our weather history database for the weather conditions in past years. The results will help you decide how hot, cold, wet, or windy it might be!

Date:

Astronomy

Dec. 10, 2012 Rise Set
Actual Time 7:11 AM CST 4:17 PM CST
Civil Twilight 6:39 AM CST 4:49 PM CST
Nautical Twilight 6:03 AM CST 5:24 PM CST
Astronomical Twilight 5:29 AM CST 5:59 PM CST
Moon 3:51 AM CST (12/10) 2:08 PM CST (12/10)
Length of Visible Light 10h 10m
Length of Day
9h 06m
Waning Crescent, 10% of the Moon is Illuminated
Dec 10
Waning Crescent
Dec 13
New
Dec 19
First Quarter
Dec 28
Full
Jan 4
Last Quarter

Hourly Weather History & Observations

Time (CST) Temp. Windchill Dew Point Humidity Pressure Visibility Wind Dir Wind Speed Gust Speed Precip Events Conditions
12:25 AM 35.6 °F 30.7 °F 33.8 °F 93% 29.68 in 10.0 mi West 5.8 mph - N/A   Overcast
12:53 AM 36.0 °F 28.5 °F 33.1 °F 89% 29.69 in 10.0 mi West 10.4 mph - N/A   Overcast
1:53 AM 35.1 °F 26.4 °F 32.0 °F 89% 29.70 in 10.0 mi West 12.7 mph 20.7 mph N/A   Overcast
2:53 AM 35.1 °F 27.9 °F 32.0 °F 89% 29.70 in 10.0 mi West 9.2 mph - N/A   Overcast
3:18 AM 35.6 °F 29.9 °F 32.0 °F 87% 29.68 in 10.0 mi West 6.9 mph - N/A   Overcast
3:53 AM 35.1 °F 27.9 °F 32.0 °F 89% 29.70 in 10.0 mi West 9.2 mph - N/A   Overcast
4:35 AM 33.8 °F 25.8 °F 32.0 °F 93% 29.69 in 8.0 mi West 10.4 mph 18.4 mph N/A   Overcast
4:44 AM 33.8 °F 25.3 °F 32.0 °F 93% 29.69 in 7.0 mi WSW 11.5 mph - N/A   Overcast
4:53 AM 33.1 °F 24.9 °F 30.9 °F 92% 29.72 in 7.0 mi West 10.4 mph 17.3 mph N/A   Overcast
5:53 AM 33.1 °F 24.9 °F 30.9 °F 92% 29.73 in 6.0 mi West 10.4 mph - N/A   Overcast
6:53 AM 32.0 °F 24.2 °F 30.9 °F 96% 29.74 in 6.0 mi West 9.2 mph - N/A   Overcast
7:53 AM 33.1 °F 30.0 °F 30.9 °F 92% 29.76 in 8.0 mi NNW 3.5 mph - N/A   Overcast
8:53 AM 33.1 °F 25.5 °F 30.0 °F 89% 29.79 in 9.0 mi NNW 9.2 mph - N/A   Overcast
9:53 AM 33.1 °F 26.1 °F 28.9 °F 85% 29.81 in 7.0 mi NW 8.1 mph - N/A   Overcast
10:39 AM 33.8 °F 25.3 °F 26.6 °F 75% 29.79 in 10.0 mi NW 11.5 mph 17.3 mph N/A   Mostly Cloudy
10:53 AM 34.0 °F 26.0 °F 28.0 °F 79% 29.81 in 10.0 mi NNW 10.4 mph - N/A   Scattered Clouds
11:29 AM 33.8 °F 26.4 °F 26.6 °F 75% 29.79 in 10.0 mi NNW 9.2 mph - N/A   Mostly Cloudy
11:53 AM 33.1 °F 24.9 °F 26.1 °F 75% 29.82 in 10.0 mi NW 10.4 mph - N/A   Mostly Cloudy
12:53 PM 33.1 °F 24.9 °F 23.0 °F 66% 29.82 in 10.0 mi NNW 10.4 mph - N/A   Mostly Cloudy
1:53 PM 33.1 °F 24.9 °F 23.0 °F 66% 29.81 in 10.0 mi NNW 10.4 mph 19.6 mph N/A   Overcast
2:53 PM 33.1 °F 26.9 °F 23.0 °F 66% 29.82 in 10.0 mi NW 6.9 mph - N/A   Overcast
3:53 PM 30.9 °F 23.5 °F 21.9 °F 69% 29.87 in 10.0 mi NW 8.1 mph - N/A   Overcast
4:22 PM 30.2 °F 23.4 °F 21.2 °F 69% 29.86 in 10.0 mi NW 6.9 mph - N/A   Overcast
4:53 PM 30.0 °F 24.1 °F 21.9 °F 72% 29.90 in 10.0 mi NW 5.8 mph - N/A   Overcast
5:10 PM 30.2 °F 23.4 °F 21.2 °F 69% 29.87 in 10.0 mi NW 6.9 mph - N/A   Overcast
5:33 PM 30.2 °F 24.3 °F 21.2 °F 69% 29.88 in 10.0 mi WNW 5.8 mph - N/A   Overcast
5:53 PM 30.0 °F 23.2 °F 21.9 °F 72% 29.90 in 10.0 mi WNW 6.9 mph - N/A   Overcast
6:53 PM 30.0 °F 24.1 °F 21.0 °F 69% 29.92 in 10.0 mi NNW 5.8 mph - N/A   Overcast
7:13 PM 30.2 °F 21.9 °F 19.4 °F 64% 29.91 in 10.0 mi NNW 9.2 mph - N/A   Overcast
7:46 PM 30.2 °F 23.4 °F 17.6 °F 60% 29.93 in 10.0 mi NNW 6.9 mph - N/A   Overcast
7:53 PM 30.0 °F 22.4 °F 18.0 °F 61% 29.95 in 10.0 mi WNW 8.1 mph - N/A   Overcast
8:53 PM 30.0 °F 25.2 °F 19.0 °F 64% 29.94 in 10.0 mi WNW 4.6 mph - N/A   Overcast
9:53 PM 30.0 °F 25.2 °F 19.0 °F 64% 29.96 in 10.0 mi WNW 4.6 mph - N/A   Overcast
10:53 PM 30.0 °F 24.1 °F 21.9 °F 72% 29.96 in 10.0 mi West 5.8 mph - N/A   Overcast
11:53 PM 28.9 °F 22.8 °F 21.9 °F 75% 29.96 in 10.0 mi West 5.8 mph - N/A   Overcast